User: anonymous   Login
Location: Muenchen
(48.1800°N, 11.5800°E)
Time: 02:26:43
(UTC+02:00)
Language:

Cosmos 2233 Rocket - Orbit

View from above orbital plane
View from above orbital plane
View from above satellite
View from above satellite

Ground track
Ground track

The orbit data is extracted from the following two-line orbital elements,

1 22488U 93008B   16121.26150141  .00000032  00000-0  17158-4 0  9996
2 22488  82.9461  25.7182 0024305 304.4797 167.0493 13.77702391167407
Epoch (UTC): 30 April 2016 06:16:33
Eccentricity: 0.0024305
inclination: 82.9461°
perigee height: 954 km
apogee height: 990 km
right ascension of ascending node: 25.7182°
argument of perigee: 304.4797°
revolutions per day: 13.77702391
mean anomaly at epoch: 167.0493°
orbit number at epoch: 16740

The dashed part of the orbit path shows where the satellite is in the earth's shadow,  

DLR